Simultaneous Nadir Overpasses (SNOs) Predictions

Prediction of SNOs between LANDSAT-8 and METOP-B Satellite Orbit:

Table of predicted SNOs for the next 14.0 days since TLE Epoch: 10/11/2025
Index Date (LANDSAT-8) Time (LANDSAT-8) Lat,Lon (LANDSAT-8) SZA (LANDSAT-8 ) Date (METOP-B) Time (METOP-B) Lat,Lon (METOP-B) SZA (METOP-B ) Distance(km) Time Diff (sec)
1 10/12/2025 03:30:29 81.36, 171.38 91.55 10/12/2025 03:30:16 81.35, 171.32 91.53 1.16 13
2 10/12/2025 04:19:56 -81.35, -21.07 88.46 10/12/2025 04:20:57 -81.35, -21.01 88.42 0.98 61
3 10/14/2025 22:15:17 -81.36, 70.18 87.41 10/14/2025 22:14:18 -81.35, 70.02 87.46 2.76 59
4 10/14/2025 23:04:43 81.36,-122.09 92.62 10/14/2025 23:04:57 81.35,-122.17 92.61 1.75 14
5 10/17/2025 17:49:32 -81.35, 136.55 86.38 10/17/2025 17:49:00 -81.35, 136.46 86.40 1.44 32
6 10/17/2025 18:38:58 81.36, -55.75 93.65 10/17/2025 18:39:39 81.35, -55.73 93.67 0.51 41
7 10/20/2025 13:23:46 -81.36,-156.90 85.34 10/20/2025 13:23:41 -81.35,-156.78 85.33 2.19 5
8 10/20/2025 14:13:12 81.36, 10.77 94.68 10/20/2025 14:14:21 81.35, 10.64 94.70 2.32 69
9 10/23/2025 08:08:32 81.36, 101.80 95.64 10/23/2025 08:07:41 81.35, 101.86 95.62 1.00 51



Historial Predications of SNOs between LANDSAT-8 and METOP-B
